Location: Newark
(48.5178°N, 4.2361°E)
Time: 23:34:23
(UTC+00:00)

Envisat - Pass Details

Date: 07 March 2021
Orbit: 764 x 766 km, 98.1° (Epoch: 12 April)

Event Time Altitude Azimuth Distance (km) Brightness Sun altitude
Rises 04:09:39 0° 27° (NNE) 3,244 6.9 -21.0°
Reaches altitude 10° 04:12:44 10° 47° (NE) 2,311 6.4 -20.5°
Maximum altitude 04:16:07 18° 89° (E) 1,829 5.9 -20.0°
Drops below altitude 10° 04:19:29 10° 131° (SE) 2,299 5.9 -19.4°
Sets 04:22:32 0° 150° (SSE) 3,218 6.4 -18.9°
